TimeEST,TemperatureF,Dew PointF,Humidity,Sea Level PressureIn,VisibilityMPH,Wind Direction,Wind SpeedMPH,Gust SpeedMPH,PrecipitationIn,Events,Conditions,WindDirDegrees,DateUTC
12:15 AM,49.1,48.4,97,30.30,10.0,Calm,Calm,-,N/A,,Light Drizzle,0,2013-01-06 05:15:00
12:35 AM,49.1,48.6,98,30.29,10.0,Calm,Calm,-,N/A,,Mostly Cloudy,0,2013-01-06 05:35:00
12:55 AM,48.9,48.6,99,30.29,10.0,Calm,Calm,-,N/A,,Scattered Clouds,0,2013-01-06 05:55:00
1:15 AM,48.7,48.6,99,30.28,10.0,Calm,Calm,-,N/A,,Scattered Clouds,0,2013-01-06 06:15:00
1:35 AM,48.7,48.7,100,30.26,7.0,SSE,3.5,-,N/A,Rain,Light Rain,150,2013-01-06 06:35:00
1:55 AM,49.3,48.6,97,30.25,7.0,Calm,Calm,-,N/A,Rain,Light Rain,0,2013-01-06 06:55:00
2:15 AM,49.3,48.7,98,30.25,10.0,Calm,Calm,-,N/A,Rain,Light Rain,0,2013-01-06 07:15:00
2:35 AM,48.9,48.9,100,30.24,7.0,Calm,Calm,-,N/A,Rain,Light Rain,0,2013-01-06 07:35:00
2:55 AM,48.7,48.7,100,30.24,7.0,Calm,Calm,-,N/A,,Light Drizzle,0,2013-01-06 07:55:00
3:15 AM,48.9,48.9,100,30.22,7.0,Calm,Calm,-,N/A,,Mostly Cloudy,0,2013-01-06 08:15:00
3:35 AM,49.1,49.1,100,30.22,7.0,Calm,Calm,-,N/A,,Overcast,0,2013-01-06 08:35:00
3:55 AM,49.3,49.3,100,30.21,7.0,Calm,Calm,-,N/A,Rain,Light Rain,0,2013-01-06 08:55:00
4:35 AM,49.1,49.1,100,30.22,7.0,Calm,Calm,-,N/A,,Overcast,0,2013-01-06 09:35:00
4:55 AM,49.3,49.3,100,30.22,10.0,Calm,Calm,-,N/A,,Overcast,0,2013-01-06 09:55:00
5:15 AM,49.8,49.3,98,30.22,10.0,Calm,Calm,-,N/A,,Overcast,0,2013-01-06 10:15:00
5:35 AM,49.6,49.3,99,30.22,10.0,Calm,Calm,-,N/A,,Overcast,0,2013-01-06 10:35:00
5:55 AM,49.8,49.1,97,30.22,10.0,Calm,Calm,-,N/A,,Overcast,0,2013-01-06 10:55:00
6:15 AM,50.0,48.7,95,30.22,10.0,Calm,Calm,-,N/A,,Overcast,0,2013-01-06 11:15:00
6:35 AM,50.0,48.2,94,30.22,10.0,Calm,Calm,-,N/A,,Overcast,0,2013-01-06 11:35:00
6:55 AM,49.8,48.2,94,30.22,10.0,Calm,Calm,-,N/A,,Overcast,0,2013-01-06 11:55:00
7:15 AM,49.1,48.6,98,30.22,10.0,Calm,Calm,-,N/A,,Mostly Cloudy,0,2013-01-06 12:15:00
7:35 AM,48.6,48.2,99,30.22,10.0,Calm,Calm,-,N/A,,Overcast,0,2013-01-06 12:35:00
7:55 AM,48.2,48.2,100,30.24,10.0,Calm,Calm,-,N/A,,Overcast,0,2013-01-06 12:55:00
8:15 AM,48.9,48.0,97,30.25,10.0,Calm,Calm,-,N/A,,Overcast,0,2013-01-06 13:15:00
8:55 AM,50.5,46.8,87,30.25,10.0,Calm,Calm,-,N/A,,Overcast,0,2013-01-06 13:55:00
9:15 AM,51.3,44.8,78,30.24,10.0,Calm,Calm,-,N/A,,Overcast,0,2013-01-06 14:15:00
9:35 AM,51.8,43.7,74,30.25,10.0,North,3.5,-,N/A,,Overcast,350,2013-01-06 14:35:00
9:55 AM,52.3,42.8,70,30.26,10.0,Calm,Calm,-,N/A,,Overcast,0,2013-01-06 14:55:00
10:35 AM,52.7,43.7,71,30.26,10.0,Calm,Calm,-,N/A,,Overcast,0,2013-01-06 15:35:00
10:55 AM,52.7,43.7,71,30.25,10.0,Calm,Calm,-,N/A,,Overcast,0,2013-01-06 15:55:00
11:15 AM,52.9,42.8,69,30.24,10.0,Calm,Calm,-,N/A,,Overcast,0,2013-01-06 16:15:00
11:35 AM,53.2,42.4,67,30.23,10.0,Calm,Calm,-,N/A,,Overcast,0,2013-01-06 16:35:00
11:55 AM,53.6,43.0,67,30.22,10.0,WNW,3.5,-,N/A,,Overcast,300,2013-01-06 16:55:00
12:15 PM,54.1,41.9,63,30.21,10.0,WNW,3.5,-,N/A,,Overcast,300,2013-01-06 17:15:00
12:35 PM,55.2,40.6,58,30.20,10.0,Calm,Calm,-,N/A,,Overcast,0,2013-01-06 17:35:00
12:55 PM,56.3,41.4,57,30.18,10.0,Calm,Calm,-,N/A,,Mostly Cloudy,0,2013-01-06 17:55:00
1:15 PM,57.6,43.0,58,30.17,10.0,Calm,Calm,-,N/A,,Scattered Clouds,0,2013-01-06 18:15:00
1:35 PM,58.5,43.5,58,30.17,10.0,NW,4.6,-,N/A,,Mostly Cloudy,320,2013-01-06 18:35:00
1:55 PM,59.2,42.6,54,30.16,10.0,WNW,4.6,-,N/A,,Overcast,290,2013-01-06 18:55:00
2:15 PM,59.5,42.6,54,30.16,10.0,NW,6.9,-,N/A,,Overcast,320,2013-01-06 19:15:00
2:35 PM,59.0,43.3,56,30.16,10.0,WNW,5.8,-,N/A,,Overcast,300,2013-01-06 19:35:00
2:55 PM,58.5,44.2,59,30.15,10.0,NW,4.6,-,N/A,,Overcast,320,2013-01-06 19:55:00
3:15 PM,58.6,44.6,60,30.15,10.0,NW,3.5,-,N/A,,Overcast,310,2013-01-06 20:15:00
3:55 PM,58.1,45.0,62,30.14,10.0,Calm,Calm,-,N/A,,Overcast,0,2013-01-06 20:55:00
4:15 PM,57.6,45.0,63,30.13,10.0,Calm,Calm,-,N/A,,Overcast,0,2013-01-06 21:15:00
4:35 PM,57.6,45.7,65,30.14,10.0,West,3.5,-,N/A,,Overcast,270,2013-01-06 21:35:00
4:55 PM,57.2,45.9,66,30.14,10.0,Calm,Calm,-,N/A,,Overcast,0,2013-01-06 21:55:00
5:15 PM,56.7,46.4,69,30.14,10.0,Calm,Calm,-,N/A,,Overcast,0,2013-01-06 22:15:00
5:35 PM,55.8,46.8,72,30.15,10.0,Calm,Calm,-,N/A,,Overcast,0,2013-01-06 22:35:00
5:55 PM,54.9,46.8,74,30.14,10.0,Calm,Calm,-,N/A,,Overcast,0,2013-01-06 22:55:00
6:15 PM,54.9,46.8,74,30.15,10.0,Calm,Calm,-,N/A,,Overcast,0,2013-01-06 23:15:00
6:35 PM,54.1,47.3,78,30.14,10.0,Calm,Calm,-,N/A,,Overcast,0,2013-01-06 23:35:00
6:55 PM,54.0,47.7,79,30.15,10.0,Calm,Calm,-,N/A,,Overcast,0,2013-01-06 23:55:00
7:15 PM,54.3,47.7,78,30.15,10.0,Calm,Calm,-,N/A,,Overcast,0,2013-01-07 00:15:00
7:35 PM,54.0,47.7,79,30.16,10.0,Calm,Calm,-,N/A,,Overcast,0,2013-01-07 00:35:00
7:55 PM,54.0,47.3,78,30.17,10.0,West,4.6,-,N/A,,Overcast,280,2013-01-07 00:55:00
8:15 PM,53.8,46.8,77,30.18,10.0,West,3.5,-,N/A,,Overcast,280,2013-01-07 01:15:00
8:35 PM,53.6,46.6,77,30.18,10.0,West,4.6,-,N/A,,Mostly Cloudy,280,2013-01-07 01:35:00
8:55 PM,53.4,46.4,77,30.17,10.0,West,3.5,-,N/A,,Scattered Clouds,260,2013-01-07 01:55:00
9:15 PM,53.1,46.4,78,30.17,10.0,West,3.5,-,N/A,,Mostly Cloudy,270,2013-01-07 02:15:00
9:35 PM,51.1,45.9,82,30.18,10.0,WNW,3.5,-,N/A,,Scattered Clouds,290,2013-01-07 02:35:00
9:55 PM,50.7,46.0,84,30.19,10.0,West,3.5,-,N/A,,Clear,280,2013-01-07 02:55:00
10:55 PM,49.3,45.7,87,30.20,10.0,WNW,5.8,-,N/A,,Clear,300,2013-01-07 03:55:00
11:15 PM,50.2,45.0,82,30.20,10.0,NW,9.2,-,N/A,,Clear,320,2013-01-07 04:15:00
11:35 PM,49.6,42.8,77,30.21,10.0,NNW,9.2,16.1,N/A,,Clear,330,2013-01-07 04:35:00
11:55 PM,48.7,42.1,78,30.22,10.0,NNW,11.5,-,N/A,,Clear,330,2013-01-07 04:55:00